Dewpoint
9 10 9 10 10 10 10 10 9 9 8 8 8 7 6 5 1 -6 -14 -24 -29 -32 -32 -32 -33 -33 -31 -13 -19 -21 -14 -13 -17 -20 -13 -12 -12 -11 -15 -13 -11 -12 -12 -13 -13 -14 -14
9 9 9 9 10 10 10 9 10 10 9 8 8 8 7 6 4 -3 -11 -22 -29 -31 -32 -32 -32 -30 -24 -18 -22 -17 -14 -13 -13 -16 -17 -14 -13 -13 -14 -14 -16 -13 -14 -14 -13 -14 -15
2 6 8 9 8 8 9 9 9 9 9 10 8 8 7 7 6 3 -8 -18 -28 -31 -31 -32 -30 -22 -14 -11 -17 -15 -13 -12 -15 -15 -16 -14 -13 -15 -14 -14 -10 -10 -12 -15 -14 -14 -15
-1 0 2 6 8 8 8 8 9 10 10 9 10 9 8 7 7 4 -2 -17 -27 -30 -30 -31 -28 -22 -11 -12 -16 -12 -14 -14 -16 -17 -14 -13 -11 -11 -10 -9 -11 -13 -12 -17 -13 -14 -16
-0 -1 -0 1 4 6 8 8 8 9 9 9 10 10 9 8 7 5 -3 -13 -26 -29 -29 -27 -20 -11 -16 -11 -10 -14 -15 -15 -13 -15 -14 -14 -10 -10 -10 -13 -14 -14 -18 -14 -15 -17 -17
-5 -3 -1 -1 -1 1 5 7 7 7 8 8 9 9 9 9 7 6 -2 -18 -24 -27 -25 -21 -14 -7 -11 -10 -11 -15 -16 -15 -13 -11 -11 -11 -10 -12 -13 -16 -19 -14 -14 -14 -15 -19 -15
-15 -16 -9 -6 -2 -1 -0 2 6 6 7 8 8 9 9 9 9 7 -7 -22 -11 -6 -6 -6 -10 -14 -9 -10 -12 -13 -14 -14 -14 -13 -13 -11 -13 -15 -12 -11 -11 -12 -14 -17 -19 -16 -13
-1 -9 -16 -17 -12 -7 -3 -0 0 2 5 5 8 6 8 8 8 6 -16 -11 -8 -7 -6 -10 -11 -6 -10 -12 -13 -13 -14 -15 -15 -16 -12 -12 -15 -10 -11 -12 -12 -15 -16 -17 -16 -16 -13
-5 -3 -0 -5 -11 -13 -8 -5 -0 0 2 6 6 6 7 7 7 7 -10 -11 -8 -14 -4 -4 -7 -8 -10 -12 -14 -15 -14 -15 -16 -14 -14 -14 -10 -10 -10 -11 -13 -16 -14 -14 -14 -14 -13
-4 -7 -3 -3 -5 -6 -4 -2 -3 -1 0 1 7 5 7 7 6 6 4 -8 -14 -8 -0 -4 -13 -12 -10 -12 -14 -15 -15 -16 -14 -13 -13 -10 -10 -10 -10 -13 -13 -14 -13 -13 -11 -10 -12
-2 -4 -5 -4 -3 -3 -3 -2 0 2 0 1 5 6 6 7 6 5 3 2 -9 -18 6 -9 -10 -11 -13 -17 -15 -13 -14 -15 -14 -10 -10 -8 -9 -9 -12 -12 -12 -13 -12 -9 -8 -8 -7
-4 -2 -4 -4 -4 -4 -3 -3 -2 -1 -0 1 2 5 6 6 6 2 2 -2 -3 -1 7 -8 -13 -11 -13 -16 -15 -12 -13 -11 -11 -11 -11 -10 -10 -12 -12 -12 -11 -12 -8 -8 -6 -6 -6
-4 -5 -4 -4 -4 -4 -3 -4 -2 -1 1 0 1 3 5 5 5 3 0 0 0 2 -6 -8 -12 -12 -14 -14 -12 -12 -11 -11 -12 -9 -9 -9 -10 -10 -11 -13 -12 -10 -8 -12 -11 -9 -12
-3 -4 -3 -3 -4 -2 -3 -2 -2 -1 1 2 1 2 4 5 4 3 0 0 2 2 -6 -11 -12 -13 -13 -13 -12 -12 -12 -9 -11 -12 -11 -11 -8 -9 -11 -12 -12 -7 -6 -6 -4 -11 -10
-2 -3 -4 -4 -2 -1 -1 -2 -2 1 2 2 1 3 3 3 3 2 -1 2 3 -1 -8 -11 -12 -11 -12 -12 -11 -10 -10 -9 -10 -9 -10 -10 -9 -10 -11 -11 -10 -6 -5 -6 1 -4 -2
-3 -3 -1 -2 -1 -1 -1 -1 -0 -0 0 1 1 2 1 2 2 0 1 4 2 -4 -8 -11 -8 -11 -9 -10 -9 -10 -8 -9 -7 -8 -7 -7 -5 -10 -10 -9 -9 -6 -7 -1 -2 -0 -4
-6 -7 -5 -2 -1 -1 -2 -1 -1 1 1 1 2 0 0 1 0 -0 2 3 1 -6 -10 -7 -8 -10 -10 -10 -11 -9 -8 -8 -9 -7 -9 -9 -8 -7 -9 -8 -7 -5 -4 -5 -3 -2 -2
-5 -5 -2 -3 -1 -1 -1 -0 -1 1 1 1 1 1 -0 0 -0 -0 2 2 -3 -6 -10 -8 -8 -8 -10 -10 -9 -7 -5 -7 -9 -9 -8 -5 -8 -8 -10 -10 -10 -8 -6 -5 -1 -1 -3
-4 -0 -2 -2 -2 -1 0 -1 -2 -1 0 1 1 -1 -0 -0 2 1 0 -0 -3 -4 -8 -9 -7 -9 -9 -9 -7 -7 -7 -8 -9 -9 -6 -7 -7 -11 -10 -8 -6 -7 -8 -8 -5 -3 -1
-1 -0 -1 -1 -1 -1 -1 -2 -4 -1 2 2 0 -1 -1 -0 1 -1 2 1 -2 -4 -5 -5 -5 -7 -7 -8 -7 -6 -6 -7 -8 -9 -6 -7 -6 -3 -8 -7 -8 -6 -9 -10 -3 1 -3
-0 -1 -1 -1 -2 -1 -3 -0 2 5 3 1 -0 -1 -2 0 1 1 -0 -1 -1 -2 -4 -4 -5 -7 -7 -5 -6 -6 -7 -6 -6 -4 -7 -7 -5 -6 -12 -16 -14 -13 -10 -8 -0 0 1
-1 -1 -1 -1 -2 4 6 6 5 4 2 0 0 -1 -2 -2 -1 0 1 1 -0 -2 -3 -3 -5 -7 -7 -6 -7 -6 -7 -8 -6 -7 -8 -9 -12 -11 -15 -16 -15 -14 -9 -5 -3 -1 -3
-1 -2 -1 -1 -2 -2 1 3 2 2 2 0 -0 -2 -3 -2 0 1 0 -1 -2 -2 -4 -6 -6 -5 -5 -6 -9 -9 -9 -9 -7 -8 -8 -10 -12 -11 -11 -8 -7 -2 -3 -2 3 -3 -2
-1 -2 -2 -1 -2 -1 -1 -1 -1 -0 1 1 -1 -3 -1 1 0 -1 -2 -2 -2 -4 -2 -4 -6 -5 -6 -7 -8 -8 -8 -8 -8 -9 -10 -11 -13 -8 -5 -3 -0 -1 -5 -5 -3 -2 -2
-1 -2 -2 -2 -1 -1 -1 -1 -1 -0 0 -2 -2 -2 -1 1 -1 -1 -2 -3 -4 -3 -3 -5 -5 -8 -8 -10 -8 -8 -7 -8 -8 -9 -10 -11 -8 -2 -2 -4 -3 -1 -2 -4 -5 -3 -3
-2 -2 -2 -2 -2 -1 -1 -1 -1 -1 -0 -1 -1 -2 -2 0 0 -1 -0 -1 -1 -2 -3 -5 -6 -6 -7 -9 -9 -7 -5 -10 -5 -4 -9 -8 -6 -3 -2 -2 -4 -2 -4 -5 -5 -0 -4
-2 -2 -2 -2 -2 -1 -1 -1 -1 -1 -1 -1 -0 -0 -1 -1 -1 -1 -1 -3 -6 -6 -6 -6 -7 -8 -7 -7 -6 -7 -6 -7 -3 -3 -4 -6 -4 -1 -3 -3 -3 -4 -5 -4 -1 0 -4
-2 -3 -3 -2 -2 -1 -1 -1 -2 -2 -2 -2 -1 -1 -2 -2 -2 -3 -6 -6 -7 -8 -6 -7 -7 -6 -7 -5 -8 -5 -4 -5 -4 -4 -3 -2 -2 -1 -3 -3 -2 -5 -4 -3 -3 -4 -3
-3 -5 -3 -2 -2 -1 -1 -4 -4 -3 -4 -4 -3 -3 -5 -4 -3 -6 -7 -7 -8 -8 -7 -4 -6 -7 -8 -7 -5 -5 -2 -2 -3 -1 -3 -1 -4 -3 -4 -4 -4 -5 -4 -4 -4 -4 -3
Wind_Speed
23 29 29 28 27 27 28 25 24 22 20 20 19 18 16 17 16 13 12 10 9 9 9 8 9 7 6 3 4 6 4 3 3 2 0 2 2 2 5 2 4 7 2 3 4 2 4
32 35 31 27 31 29 29 29 28 26 25 22 21 21 21 15 19 15 13 11 10 10 8 8 8 6 4 7 6 5 4 3 1 0 1 1 3 3 3 1 5 1 5 8 6 3 5
36 37 37 36 38 34 30 30 31 29 28 27 25 23 23 22 18 17 15 13 10 10 9 9 6 7 7 7 8 5 4 5 4 2 2 3 4 2 4 4 1 3 8 6 7 4 6
31 31 32 36 35 33 37 32 28 30 30 29 29 27 25 24 21 16 15 15 11 10 9 8 6 6 6 8 8 4 3 4 4 3 4 6 4 5 1 3 2 5 5 6 7 4 2
32 32 32 32 35 39 29 31 31 35 34 31 32 31 28 26 23 19 15 14 13 11 10 7 7 4 5 6 8 7 7 5 4 3 6 8 4 2 4 5 5 4 7 6 7 4 6
27 29 34 35 33 34 40 37 33 36 33 32 31 32 30 28 26 20 17 13 12 12 10 9 11 6 8 7 10 8 8 6 5 8 7 5 4 5 4 6 8 1 5 5 10 8 12
27 26 26 28 34 36 34 35 39 38 36 35 32 31 33 33 30 22 18 9 7 6 13 10 5 3 7 9 12 10 8 6 6 7 8 4 7 7 4 4 4 2 5 10 12 9 13
26 27 28 28 27 28 33 34 34 36 41 41 36 36 33 29 35 24 20 12 12 4 8 14 12 10 10 11 9 12 10 9 8 7 7 6 8 5 5 4 1 3 8 8 8 6 12
29 28 28 29 29 29 28 31 36 34 33 37 36 36 32 36 37 33 26 22 18 13 6 9 18 19 16 16 12 17 15 9 8 9 9 7 8 8 4 2 4 4 5 6 10 18 15
31 30 31 31 30 29 28 27 29 36 34 33 30 35 39 37 35 33 31 21 19 10 5 9 10 11 18 14 10 14 14 10 6 7 7 3 7 6 5 1 4 6 2 9 14 11 7
33 31 32 33 33 32 31 30 27 28 32 31 31 35 43 37 28 26 23 26 11 9 5 14 10 10 19 20 18 11 12 8 12 10 6 6 10 9 6 1 1 3 10 13 13 10 9
38 36 35 35 35 36 36 35 34 32 31 30 26 28 45 40 32 22 27 19 16 3 9 8 11 14 20 16 12 17 12 8 12 7 4 7 3 4 3 2 1 6 9 6 4 4 5
39 41 40 39 38 38 39 38 37 36 31 29 26 28 44 41 33 28 24 29 7 5 3 10 11 17 18 18 13 19 19 14 9 8 10 8 8 5 1 2 4 5 7 3 4 4 3
41 41 42 41 41 41 39 39 39 36 35 27 24 26 41 45 37 34 38 3 6 11 9 3 14 21 16 20 13 16 18 13 6 5 11 11 7 10 4 1 2 2 4 2 4 4 9
38 43 45 44 43 44 42 44 44 37 31 27 18 30 46 45 31 40 30 3 12 9 12 15 17 20 11 19 10 15 17 13 8 10 6 7 6 7 3 2 3 5 2 3 3 6 5
40 42 43 46 46 47 47 45 44 45 41 35 32 39 35 50 39 46 9 14 8 7 12 19 9 15 19 22 16 15 16 11 9 7 6 5 6 8 6 7 4 2 4 4 4 4 5
46 47 49 47 50 52 53 51 51 51 44 34 33 20 27 38 49 29 7 9 7 15 20 16 10 11 14 23 15 18 18 10 10 11 7 8 3 8 4 7 9 7 5 3 2 4 4
44 47 45 50 53 59 59 55 57 61 52 41 39 11 36 57 10 7 6 8 9 17 20 7 9 6 18 23 14 10 12 9 18 19 12 4 2 6 6 5 3 4 7 5 4 5 6
43 40 45 51 57 57 56 62 68 63 58 63 37 10 53 56 10 11 10 9 12 9 11 12 7 8 15 16 9 12 12 5 19 16 13 9 6 6 6 5 5 10 11 6 3 4 11
38 40 39 41 46 59 66 69 62 58 60 67 26 6 16 28 16 22 18 18 14 13 4 3 6 14 14 16 9 16 12 7 15 12 9 6 4 2 5 4 7 9 12 12 7 5 10
35 25 27 26 35 60 58 50 46 55 88 69 21 8 23 15 14 22 25 22 23 12 8 7 3 13 13 8 15 11 13 16 10 13 8 3 4 4 5 4 6 8 10 11 11 13 6
16 20 19 13 38 13 26 42 47 83 94 50 19 13 31 20 27 21 18 20 27 16 13 11 10 14 14 15 8 19 21 15 11 9 10 4 4 6 5 8 10 12 11 11 14 13 15
13 13 11 5 21 37 44 52 73 75 69 39 29 23 36 24 20 19 19 22 23 23 8 17 17 12 11 9 13 22 15 17 16 16 10 8 6 7 3 6 5 8 17 14 4 7 7
11 5 8 8 5 24 36 32 36 42 38 35 32 40 14 15 19 22 27 26 27 23 10 19 29 10 13 32 33 26 22 18 16 10 11 9 9 5 5 6 7 3 3 10 8 7 6
9 3 2 2 6 23 20 30 28 22 30 46 35 28 12 13 15 18 24 19 21 22 15 16 2 26 34 23 12 10 5 6 5 6 7 6 7 4 4 10 2 4 8 6 4 1 5
10 8 5 22 19 25 25 32 33 32 37 40 27 23 30 14 8 28 20 26 17 11 7 7 29 28 12 4 4 7 6 10 8 7 6 6 4 5 5 4 5 5 8 2 5 4 6
12 11 11 14 14 19 23 28 28 25 26 24 27 31 31 14 14 32 17 21 26 21 9 19 15 6 6 4 6 7 5 7 10 13 9 7 6 9 7 6 2 5 5 7 5 5 3
16 17 14 15 16 23 25 23 22 28 28 31 34 30 27 20 15 12 15 16 23 20 12 21 10 3 5 6 5 4 4 4 6 10 13 8 9 6 7 8 8 10 8 4 5 5 3
24 20 18 20 18 24 28 23 19 18 24 35 28 32 35 27 19 27 24 21 15 26 35 10 8 10 5 5 3 3 3 4 9 7 2 6 2 4 6 1 10 8 1 5 3 3 1
Wind_Direction
267 261 261 266 265 265 267 265 266 267 271 274 277 282 290 299 297 300 301 303 303 303 309 314 314 317 325 263 235 239 260 292 357 11 305 150 153 208 229 213 219 248 224 251 299 290 290
258 260 269 266 263 260 267 265 260 262 266 267 271 277 282 284 291 293 295 292 295 297 299 305 314 315 324 270 233 203 225 263 238 354 299 160 157 148 148 215 271 3 269 274 255 275 281
262 258 255 263 263 265 265 268 258 257 258 263 264 265 271 277 279 290 293 289 288 290 293 297 309 308 297 270 213 216 240 228 214 203 194 157 143 212 154 163 340 283 280 248 220 279 302
260 262 259 251 255 257 264 260 260 258 260 259 261 259 261 274 275 277 285 285 282 282 283 281 285 293 266 246 215 213 196 201 207 210 162 161 139 133 135 139 170 252 246 267 154 308 83
263 259 260 256 252 252 254 258 255 257 267 265 266 260 259 261 268 274 277 274 281 280 281 276 273 238 254 208 197 187 165 197 167 186 171 170 152 149 169 225 222 197 288 293 307 282 318
268 265 260 260 259 252 251 248 256 258 263 262 266 263 263 256 261 264 266 263 267 270 264 263 245 252 218 197 180 173 181 174 162 145 133 176 196 213 198 226 271 29 283 286 296 323 317
273 270 270 266 262 259 256 254 249 250 254 262 265 266 264 265 256 249 247 237 253 269 226 223 199 220 157 161 173 173 170 167 158 187 211 182 231 233 96 55 62 58 295 299 303 340 314
279 276 272 271 269 265 261 255 254 251 253 254 261 265 270 277 256 239 225 217 216 181 268 239 230 220 184 175 172 182 170 193 196 199 177 198 230 128 114 106 18 307 307 313 293 301 318
280 278 275 274 274 268 264 260 255 253 251 248 253 259 266 271 256 238 225 229 241 241 261 242 225 222 194 188 203 183 178 177 194 187 202 260 109 151 164 150 308 280 287 330 304 314 284
277 277 275 274 275 272 268 264 260 254 250 251 251 257 258 258 256 238 230 236 239 218 253 202 206 211 188 178 207 176 182 171 171 173 171 150 151 167 184 194 314 287 24 311 302 312 316
273 274 274 272 273 272 269 267 266 259 254 248 245 251 259 254 249 225 224 225 225 213 214 135 149 166 170 177 137 170 170 173 178 158 194 127 171 171 192 80 310 349 314 297 293 277 294
268 270 273 273 270 271 271 269 263 263 261 253 245 245 245 245 233 215 204 171 155 43 245 163 146 169 164 179 171 149 157 121 136 125 105 125 141 207 115 128 214 303 286 280 231 252 248
266 266 268 270 269 268 270 269 265 265 261 257 248 239 242 236 229 204 184 140 99 186 290 178 170 173 171 170 161 167 165 163 165 166 177 154 162 147 204 235 162 286 301 260 228 223 281
266 266 266 268 269 268 265 267 267 260 257 253 250 244 236 231 236 194 152 161 157 198 233 166 163 167 172 165 169 170 176 172 194 191 159 184 185 180 142 44 344 52 339 330 274 286 312
269 266 265 267 267 266 263 264 263 249 243 246 250 238 220 222 204 181 149 155 197 191 177 168 157 164 167 175 166 173 189 191 167 180 205 183 137 131 126 151 221 134 180 28 294 247 271
273 271 265 266 264 265 266 260 260 253 247 244 248 202 205 210 194 169 188 214 218 211 189 159 158 191 185 177 171 179 177 182 155 163 179 158 135 183 136 157 151 260 128 204 173 283 287
276 278 265 266 265 263 264 256 255 248 249 239 206 188 201 179 171 169 202 205 205 211 178 168 189 181 188 180 180 182 178 168 168 151 157 150 178 149 170 205 172 167 185 204 281 260 286
278 276 266 266 269 270 267 254 244 240 240 220 195 202 182 170 149 200 193 182 214 187 199 163 165 152 188 171 170 165 182 172 171 155 158 130 110 159 182 136 258 240 185 196 241 173 241
282 271 272 272 273 269 259 250 245 246 239 194 186 154 171 172 178 189 172 180 190 175 214 163 142 163 170 169 151 154 140 154 163 163 158 167 152 138 155 161 179 212 199 216 224 258 249
273 270 275 277 278 273 256 256 251 245 207 178 166 138 166 196 213 185 177 188 180 181 201 119 115 135 140 172 144 156 132 139 163 158 128 132 173 249 211 105 146 197 203 204 204 243 265
263 264 280 285 298 276 261 244 218 199 183 169 164 165 174 181 201 193 184 175 177 167 207 193 123 183 156 154 139 148 127 131 134 137 131 175 169 200 234 198 203 213 204 214 212 236 253
248 265 289 308 357 253 181 188 182 175 166 172 146 149 178 173 168 179 174 185 178 170 163 195 194 185 164 160 162 159 149 158 154 170 164 175 140 187 233 219 227 242 241 228 226 250 266
249 271 302 315 354 56 103 142 153 157 167 176 171 162 154 159 168 172 183 168 171 162 189 186 152 137 130 120 132 147 155 154 155 161 159 161 164 176 197 177 192 251 234 209 176 221 255
221 275 323 191 17 55 76 96 133 155 166 166 153 146 148 163 173 183 171 166 166 166 129 159 159 142 124 115 101 94 103 110 130 130 150 165 182 169 160 169 225 82 98 184 210 237 252
162 163 7 193 195 67 75 85 98 130 139 142 146 147 124 149 157 147 165 154 147 131 140 146 261 149 142 123 111 118 118 131 123 135 144 183 173 158 206 210 79 187 201 200 220 206 191
138 141 116 111 93 77 81 100 103 125 143 139 130 147 132 128 170 152 143 152 152 137 135 127 129 134 136 107 125 164 180 167 163 140 194 163 227 221 182 233 228 94 139 148 166 210 170
128 124 132 140 86 87 98 111 116 116 112 123 133 132 127 100 129 148 157 151 154 154 127 139 146 124 139 123 149 168 159 162 162 163 168 166 184 205 208 239 182 149 147 158 231 81 147
123 121 124 133 112 109 102 91 96 126 126 123 126 129 129 114 90 151 138 141 153 139 140 145 135 128 135 140 169 148 149 166 154 154 168 164 168 189 218 230 236 151 142 244 71 113 116
127 122 120 111 113 104 96 88 101 126 147 139 129 135 127 101 109 100 108 127 125 151 137 158 130 130 135 139 153 135 138 171 150 163 184 189 200 172 207 142 119 161 97 136 116 133 141
Height
1509 1512 1514 1515 1516 1519 1521 1522 1523 1525 1525 1525 1526 1526 1526 1527 1527 1525 1525 1524 1522 1522 1522 1521 1521 1518 1518 1518 1517 1515 1517 1517 1516 1516 1517 1515 1515 1515 1511 1513 1515 1512 1514 1516 1517 1518 1517
1503 1505 1508 1507 1510 1511 1514 1517 1518 1519 1521 1521 1522 1524 1524 1522 1525 1523 1523 1521 1521 1521 1519 1518 1518 1518 1516 1518 1515 1513 1515 1516 1515 1516 1516 1516 1514 1515 1515 1515 1516 1517 1517 1514 1515 1515 1514
1492 1497 1497 1502 1500 1504 1506 1507 1512 1514 1514 1517 1518 1518 1520 1520 1520 1521 1521 1520 1519 1518 1518 1517 1516 1517 1514 1515 1513 1513 1514 1515 1514 1514 1515 1515 1515 1516 1515 1516 1518 1519 1515 1510 1512 1513 1511
1483 1486 1490 1490 1495 1493 1498 1501 1503 1506 1508 1510 1513 1514 1514 1517 1517 1518 1518 1519 1517 1516 1515 1514 1514 1515 1512 1509 1510 1512 1512 1514 1514 1513 1514 1514 1515 1516 1515 1517 1517 1515 1514 1502 1508 1511 1509
1479 1477 1481 1483 1484 1488 1487 1492 1494 1497 1501 1502 1507 1508 1510 1512 1513 1515 1516 1514 1516 1512 1513 1511 1513 1513 1508 1505 1509 1511 1511 1514 1512 1512 1513 1514 1516 1515 1515 1510 1507 1508 1499 1505 1503 1506 1510
1470 1470 1472 1475 1477 1478 1482 1481 1486 1488 1493 1496 1500 1502 1504 1508 1509 1511 1512 1513 1512 1511 1510 1509 1511 1515 1505 1504 1506 1508 1510 1512 1513 1512 1515 1516 1514 1509 1509 1503 1497 1499 1506 1508 1507 1501 1506
1464 1463 1465 1466 1468 1471 1473 1475 1476 1481 1483 1490 1493 1496 1499 1501 1504 1504 1509 1511 1514 1511 1505 1503 1501 1502 1501 1502 1505 1506 1508 1512 1512 1511 1508 1513 1508 1502 1507 1512 1515 1516 1514 1507 1501 1507 1508
1458 1458 1457 1460 1460 1461 1464 1467 1470 1472 1475 1480 1485 1489 1493 1496 1496 1497 1502 1505 1501 1503 1501 1498 1498 1497 1500 1500 1502 1504 1505 1509 1510 1505 1511 1511 1503 1513 1517 1518 1516 1515 1511 1502 1505 1506 1510
1451 1451 1451 1451 1453 1454 1455 1458 1462 1465 1469 1471 1477 1480 1488 1490 1489 1490 1495 1499 1499 1500 1501 1492 1490 1490 1495 1498 1497 1497 1502 1504 1504 1507 1507 1502 1508 1516 1516 1517 1515 1511 1512 1511 1514 1507 1498
1443 1443 1444 1444 1444 1446 1447 1450 1453 1456 1462 1465 1469 1475 1479 1480 1488 1485 1485 1494 1500 1498 1496 1477 1483 1482 1488 1492 1496 1495 1498 1501 1504 1504 1505 1507 1515 1515 1516 1516 1518 1511 1518 1518 1512 1509 1493
1434 1433 1436 1436 1436 1438 1439 1442 1444 1449 1453 1458 1463 1468 1466 1475 1478 1479 1486 1486 1494 1502 1495 1463 1474 1477 1480 1484 1485 1494 1496 1498 1496 1502 1505 1504 1512 1512 1511 1517 1520 1515 1519 1516 1512 1508 1504
1424 1425 1426 1426 1427 1430 1431 1433 1436 1441 1445 1451 1456 1461 1459 1467 1470 1477 1478 1484 1499 1512 1479 1465 1465 1471 1474 1480 1483 1489 1493 1496 1499 1502 1504 1507 1514 1513 1513 1517 1519 1520 1514 1507 1508 1503 1493
1414 1414 1415 1416 1418 1419 1421 1423 1426 1431 1437 1443 1448 1454 1452 1461 1462 1470 1472 1486 1506 1503 1466 1468 1461 1466 1469 1474 1478 1482 1486 1489 1487 1498 1500 1508 1510 1515 1517 1512 1517 1514 1504 1487 1486 1485 1481
1402 1403 1404 1405 1405 1407 1409 1413 1416 1422 1428 1434 1442 1447 1445 1452 1459 1460 1465 1481 1482 1480 1458 1459 1461 1462 1462 1471 1477 1477 1480 1485 1490 1488 1487 1493 1504 1509 1515 1514 1515 1516 1512 1502 1506 1487 1483
1390 1390 1391 1391 1392 1394 1396 1400 1406 1412 1421 1427 1437 1439 1438 1443 1451 1452 1464 1466 1457 1454 1453 1455 1462 1459 1462 1466 1472 1477 1477 1479 1483 1486 1485 1488 1500 1510 1513 1515 1518 1517 1512 1518 1522 1505 1501
1378 1377 1377 1377 1377 1379 1381 1385 1392 1400 1410 1422 1429 1429 1429 1435 1445 1449 1455 1443 1455 1450 1451 1446 1447 1453 1454 1458 1465 1468 1475 1480 1486 1488 1490 1493 1501 1506 1514 1514 1518 1515 1519 1516 1511 1508 1495
1363 1362 1360 1360 1361 1362 1364 1368 1377 1387 1398 1414 1420 1424 1423 1431 1442 1448 1440 1440 1449 1445 1443 1443 1448 1447 1443 1454 1455 1462 1469 1481 1482 1487 1489 1492 1490 1508 1514 1511 1505 1516 1514 1515 1515 1508 1497
1349 1346 1344 1344 1342 1340 1341 1345 1354 1367 1387 1405 1409 1411 1415 1421 1438 1440 1433 1436 1442 1439 1442 1440 1441 1444 1447 1449 1453 1465 1471 1467 1480 1483 1486 1494 1493 1498 1503 1508 1511 1508 1509 1512 1507 1505 1500
1334 1331 1329 1326 1321 1316 1315 1318 1324 1344 1364 1381 1390 1404 1410 1413 1414 1428 1426 1430 1433 1435 1441 1431 1433 1438 1441 1446 1459 1462 1467 1476 1479 1481 1484 1491 1491 1501 1505 1508 1510 1505 1505 1507 1512 1513 1503
1320 1319 1314 1309 1301 1289 1282 1284 1294 1312 1334 1361 1377 1394 1403 1408 1404 1408 1416 1421 1425 1431 1436 1431 1434 1439 1446 1447 1451 1457 1470 1480 1482 1483 1485 1489 1494 1492 1482 1486 1491 1503 1501 1503 1512 1507 1489
1311 1309 1306 1298 1282 1249 1241 1249 1260 1280 1306 1333 1349 1364 1367 1383 1394 1393 1404 1407 1414 1423 1432 1434 1435 1437 1434 1450 1451 1454 1465 1477 1483 1486 1487 1490 1492 1498 1494 1495 1496 1497 1498 1501 1510 1505 1506
1305 1303 1296 1289 1267 1226 1226 1231 1247 1267 1292 1312 1321 1339 1360 1362 1384 1391 1398 1402 1405 1417 1424 1427 1430 1434 1434 1440 1439 1450 1456 1467 1471 1486 1485 1490 1489 1494 1495 1493 1495 1495 1496 1500 1502 1499 1492
1300 1297 1291 1285 1270 1245 1233 1243 1260 1277 1292 1300 1313 1326 1340 1359 1375 1381 1381 1392 1401 1413 1424 1425 1428 1437 1438 1441 1438 1445 1455 1463 1467 1475 1480 1487 1489 1491 1484 1490 1495 1498 1491 1497 1500 1497 1500
1296 1294 1289 1284 1275 1262 1256 1258 1266 1276 1285 1295 1310 1321 1332 1356 1362 1366 1382 1395 1401 1410 1418 1425 1431 1433 1445 1443 1446 1455 1463 1469 1472 1476 1479 1485 1487 1486 1484 1494 1496 1484 1483 1486 1491 1497 1497
1296 1295 1290 1286 1284 1276 1272 1274 1275 1282 1291 1301 1312 1318 1331 1353 1364 1375 1382 1389 1402 1409 1420 1426 1428 1425 1437 1439 1447 1455 1466 1473 1477 1478 1481 1484 1483 1485 1485 1478 1480 1490 1490 1489 1486 1487 1497
1298 1297 1295 1292 1291 1289 1288 1290 1294 1296 1302 1308 1315 1320 1331 1348 1368 1373 1380 1390 1397 1408 1423 1429 1431 1432 1432 1436 1442 1447 1456 1454 1469 1481 1485 1486 1485 1483 1484 1482 1477 1476 1488 1491 1490 1482 1495
1301 1300 1300 1299 1299 1299 1298 1300 1304 1310 1314 1318 1322 1329 1334 1351 1369 1376 1380 1388 1396 1404 1415 1424 1427 1431 1432 1432 1441 1447 1453 1448 1459 1466 1480 1483 1484 1480 1479 1478 1476 1483 1489 1490 1483 1488 1495
1305 1306 1306 1306 1307 1307 1307 1311 1313 1315 1321 1323 1329 1336 1340 1353 1371 1378 1381 1386 1392 1393 1401 1418 1425 1431 1432 1435 1439 1446 1448 1450 1451 1454 1465 1471 1474 1481 1478 1480 1477 1486 1489 1485 1487 1490 1493
1311 1312 1312 1313 1314 1315 1316 1318 1321 1323 1328 1331 1339 1346 1351 1355 1376 1380 1383 1387 1392 1397 1403 1418 1416 1422 1428 1432 1440 1445 1449 1453 1451 1457 1466 1468 1464 1466 1471 1470 1481 1484 1485 1488 1488 1490 1492